sat.trackr.live / text

‹ back to catalog

STARLINK-37600

NORAD 69359 · 2026-123G

PAYLOAD ACTIVE UNKNOWN

§ Identity

Operator
Country
US
Launch date
2026-06-04
Launch site
AFETR
Launch vehicle
Mass (kg)
RCS (m²)

Purposes: comms

External: N2YO · Heavens-Above · Gunter

§ Orbital elements

Epoch: 2026-09-20T03:39:49.392000Z

Period
93.85 min
Inclination
53.1582°
Eccentricity
0.0001119
Mean motion
15.34406685 rev/d
Perigee alt
461.9 km
Apogee alt
463.4 km
Semi-major
6,840.8 km
B*
4.1555e-4
RAAN
143.5828°
Arg perigee
83.7889°
Mean anomaly
276.3240°
Rev number
1,681

§ Raw data

STARLINK-376001 69359U 26123G   26263.15265500  .00013692  00000+0  41555-3 0  99922 69359  53.1582 143.5828 0001119  83.7889 276.3240 15.34406685 16816

JSON: /api/v1/satellites/69359 · /tle

For live sub-satellite position, see the globe view (requires WebGL).

§ Visibility from observer

Set your observer location to see the next 7 days of passes ≥ 10°. The values pass through the URL so the page stays shareable.

No JS? Fill the form by hand. The geolocation button needs JavaScript.